Location: Buckenweiler
(49.0667°N, 10.2500°E)
Time: 20:40:28
(UTC+00:00)

Cosmos 2341 Rocket - Pass Details

Date: 18 January 2026
Orbit: 967 x 1004 km, 82.9° (Epoch: 14 February)

Event Time Altitude Azimuth Distance (km) Brightness Sun altitude
Rises 06:20:30 0° 204° (SSW) 3,717 7.0 -7.4°
Reaches altitude 10° 06:23:06 10° 209° (SSW) 2,772 6.3 -7.0°
Maximum altitude 06:29:18 52° 285° (WNW) 1,232 4.2 -6.1°
Drops below altitude 10° 06:35:32 10° 2° (N) 2,783 6.2 -5.2°
Sets 06:38:10 0° 7° (N) 3,732 6.9 -4.8°
